TimeEDT,TemperatureF,Dew PointF,Humidity,Sea Level PressureIn,VisibilityMPH,Wind Direction,Wind SpeedMPH,Gust SpeedMPH,PrecipitationIn,Events,Conditions,WindDirDegrees,DateUTC
12:51 AM,71.1,63.0,75,29.87,7.0,SW,4.6,-,N/A,,Mostly Cloudy,230,2013-06-12 04:51:00
1:51 AM,71.1,63.0,75,29.86,7.0,WSW,8.1,-,N/A,,Scattered Clouds,250,2013-06-12 05:51:00
2:51 AM,69.1,63.0,81,29.86,6.0,West,8.1,-,N/A,,Haze,270,2013-06-12 06:51:00
3:51 AM,68.0,62.1,81,29.86,6.0,West,5.8,-,N/A,,Haze,260,2013-06-12 07:51:00
4:51 AM,66.9,62.1,84,29.85,6.0,West,4.6,-,N/A,,Haze,270,2013-06-12 08:51:00
5:51 AM,66.0,62.1,87,29.87,4.0,West,3.5,-,N/A,,Scattered Clouds,260,2013-06-12 09:51:00
6:51 AM,66.0,62.1,87,29.91,4.0,West,5.8,-,N/A,,Mostly Cloudy,280,2013-06-12 10:51:00
7:51 AM,69.1,63.0,81,29.91,5.0,West,5.8,-,N/A,,Haze,270,2013-06-12 11:51:00
8:51 AM,72.0,64.0,76,29.91,5.0,West,5.8,-,N/A,,Haze,270,2013-06-12 12:51:00
9:51 AM,73.9,63.0,68,29.89,6.0,West,4.6,-,N/A,,Haze,260,2013-06-12 13:51:00
10:51 AM,78.1,64.9,64,29.91,7.0,WNW,6.9,-,N/A,,Mostly Cloudy,290,2013-06-12 14:51:00
11:51 AM,79.0,64.9,62,29.91,7.0,Variable,5.8,-,N/A,,Mostly Cloudy,0,2013-06-12 15:51:00
12:51 PM,78.1,64.0,62,29.91,7.0,Variable,4.6,-,0.00,Rain,Light Rain,0,2013-06-12 16:51:00
1:51 PM,77.0,64.9,66,29.91,7.0,West,8.1,-,0.00,,Overcast,270,2013-06-12 17:51:00
2:51 PM,80.1,64.9,60,29.86,7.0,Variable,5.8,-,0.00,,Mostly Cloudy,0,2013-06-12 18:51:00
3:51 PM,79.0,64.9,62,29.83,7.0,SW,12.7,-,N/A,,Overcast,220,2013-06-12 19:51:00
4:51 PM,82.0,66.9,60,29.85,7.0,Variable,5.8,-,N/A,,Overcast,0,2013-06-12 20:51:00
5:51 PM,80.1,68.0,67,29.83,7.0,SW,5.8,-,N/A,,Overcast,230,2013-06-12 21:51:00
6:51 PM,80.1,70.0,71,29.80,6.0,SSW,5.8,-,N/A,,Haze,200,2013-06-12 22:51:00
7:51 PM,80.1,70.0,71,29.81,6.0,South,3.5,-,N/A,,Haze,180,2013-06-12 23:51:00
8:51 PM,78.1,70.0,76,29.77,5.0,SSE,6.9,-,N/A,,Haze,150,2013-06-13 00:51:00
9:51 PM,75.0,69.1,82,29.76,7.0,SSE,5.8,-,N/A,,Overcast,150,2013-06-13 01:51:00
10:49 PM,75.2,71.6,89,29.77,5.0,South,8.1,-,0.00,Rain-Thunderstorm,Light Thunderstorms and Rain,190,2013-06-13 02:49:00
10:51 PM,75.0,71.1,87,29.74,5.0,South,9.2,-,0.00,Rain-Thunderstorm,Light Thunderstorms and Rain,190,2013-06-13 02:51:00
11:51 PM,72.0,64.0,76,29.68,10.0,SSW,5.8,-,0.00,Rain-Thunderstorm,Light Thunderstorms and Rain,210,2013-06-13 03:51:00